This is the latest recevied weather packets stored in our database for station/object N9OJR. If no packets are shown the sender has not sent any weather packets the latest 10 day(s).
| Time | Temp. | Humidity | Pressure | Rain* | Wind** | Luminosity | Snow |
|---|---|---|---|---|---|---|---|
| 1777505641 | 8.89° C | 98% | 1006.5 hPa | 0 mm | - | 7 W/m² | - |
| 1777505338 | 8.89° C | 99% | 1006.7 hPa | 0 mm | - | 14 W/m² | - |
| 1777505034 | 8.33° C | 99% | 1006.6 hPa | 0 mm | - | 29 W/m² | - |
| 1777504726 | 8.89° C | 99% | 1006.5 hPa | 0 mm | - | 20 W/m² | - |
| 1777504424 | 8.89° C | 99% | 1006.6 hPa | 0 mm | - | 13 W/m² | - |
| 1777504124 | 8.89° C | 99% | 1006.6 hPa | 0 mm | - | 12 W/m² | - |
| 1777503819 | 8.89° C | 99% | 1006.4 hPa | 0 mm | - | 20 W/m² | - |
| 1777503516 | 8.89° C | 99% | 1006.4 hPa | 0 mm | - | 32 W/m² | - |
| 1777503212 | 8.89° C | 99% | 1006.2 hPa | 0 mm | - | 32 W/m² | - |
| 1777502910 | 8.89° C | 99% | 1006.2 hPa | 0 mm | - | 33 W/m² | - |
| 1777502608 | 8.89° C | 99% | 1006.4 hPa | 0 mm | - | 37 W/m² | - |
| 1777502304 | 8.89° C | 99% | 1006.2 hPa | 0 mm | - | 34 W/m² | - |
| 1777502000 | 8.89° C | 99% | 1006.4 hPa | 0 mm | - | 43 W/m² | - |
| 1777501697 | 8.89° C | 99% | 1006.3 hPa | 0 mm | - | 50 W/m² | - |
| 1777501395 | 8.89° C | 99% | 1006.2 hPa | 0 mm | - | 59 W/m² | - |
| 1777501092 | 8.89° C | 99% | 1006.1 hPa | 0 mm | - | 53 W/m² | - |
| 1777500790 | 8.89° C | 99% | 1006.1 hPa | 0 mm | - | 52 W/m² | - |
| 1777500488 | 8.89° C | 99% | 1006 hPa | 0 mm | - | 51 W/m² | - |
| 1777500183 | 9.44° C | 99% | 1005.9 hPa | 0 mm | - | 43 W/m² | - |
| 1777499880 | 9.44° C | 99% | 1005.8 hPa | 0 mm | - | 39 W/m² | - |
| 1777499576 | 9.44° C | 99% | 1006.3 hPa | 0 mm | - | 34 W/m² | - |
| 1777499274 | 9.44° C | 99% | 1006.3 hPa | 0 mm | - | 25 W/m² | - |
| 1777498971 | 10° C | 99% | 1006 hPa | 0 mm | - | 30 W/m² | - |
| 1777498667 | 10° C | 99% | 1005.8 hPa | 0 mm | - | 30 W/m² | - |
| 1777498363 | 10° C | 99% | 1005.7 hPa | 0 mm | - | 61 W/m² | - |
* Rain latest hour (hover to see other rain measurements)
** Current wind speed in m/s (hover to see current wind gust speed)